User: anonymous   Login
Location: Maiden
(35.5760°N, 81.2120°W)
Time: 12:06:01
(UTC-04:00)
Language:

Nadezhda 3 Rocket - Orbit

View from above orbital plane
View from above orbital plane
View from above satellite
View from above satellite

Ground track
Ground track

The orbit data is extracted from the following two-line orbital elements,

1 21153U 91019B   20270.86028274 +.00000065 +00000-0 +51275-4 0  9995
2 21153 082.9282 031.5399 0030049 046.0903 067.0362 13.75955782483093
Epoch (UTC): 26 September 2020 20:38:48
Eccentricity: 0.0030049
inclination: 82.9282°
perigee height: 956 km
apogee height: 1000 km
right ascension of ascending node: 31.5399°
argument of perigee: 46.0903°
revolutions per day: 13.75955782
mean anomaly at epoch: 67.0362°
orbit number at epoch: 48309

The dashed part of the orbit path shows where the satellite is in the earth's shadow,  

DLR